Regional Weather Roundup
Issued by NWS Newport/Morehead, NC

Current Version | Previous Version | Text Only | Print | Product List | Glossary On
Versions: 1 2 3 4 5 6 7 8 9 10 11 12 13 14 15 16 17 18 19 20 21 22 23 24 25 26 27 28 29 30 31 32 33 34 35 36 37 38 39 40 41 42 43 44 45 46 47 48 49 50
000 ASUS42 KMHX 262225 RWRMHX WEATHER ROUNDUP FOR EASTERN NORTH CAROLINA NATIONAL WEATHER SERVICE NEWPORT/MOREHEAD CITY NC 600 PM EDT SUN MAR 26 2017 NOTE: "FAIR" INDICATES FEW OR NO CLOUDS BELOW 12,000 FEET WITH NO SIGNIFICANT WEATHER AND/OR OBSTRUCTIONS TO VISIBILITY NCZ015>017-031-032-045>047-102-103-262300- NORTH COAST CITY SKY/WX TMP DP RH WIND PRES REMARKS EDENTON MOSUNNY 70 55 58 S10 30.19F ELIZABETH CITY PTSUNNY 70 55 59 SE8 30.20S KITTY HAWK NOT AVBL MANTEO MOSUNNY 69 53 55 S8 30.21S $$ NCZ045>047-081-094-103-104-262300- CENTRAL COAST CITY SKY/WX TMP DP RH WIND PRES REMARKS FRISCO SUNNY 73 55 53 SE6 30.21S $$ NCZ095-097-098-100-101-262300- SOUTHERN COAST CITY SKY/WX TMP DP RH WIND PRES REMARKS BEAUFORT CLOUDY 69 59 70 SE6 30.20F CEDAR ISLAND NOT AVBL JACKSONVILLE SUNNY 72 54 53 SE12 30.18F PINEY ISLAND CLEAR N/A N/A N/A S8 30.20F WILMINGTON MOSUNNY 71 54 54 S12 30.18S $$ NCZ011>013-027>030-043-044-078>080-089-090>093-098-262300- COASTAL PLAIN CITY SKY/WX TMP DP RH WIND PRES REMARKS AHOSKIE N/A 71 53 53 S7 30.17S CLINTON MOSUNNY 75 57 52 SE7 30.15S ELIZABETHTOWN SUNNY 75 52 44 S12G18 30.15R GOLDSBORO MOSUNNY 75 53 46 S9 30.14F GREENVILLE MOSUNNY 75 50 41 S13 30.17S HAVELOCK MOSUNNY 71 56 58 SE12 30.20S KENANSVILLE MOSUNNY 73 52 46 S9G17 30.16S KINSTON MOSUNNY 75 48 38 SE12 30.16F NEW BERN SUNNY 74 51 44 S13 30.19S RICHLANDS SUNNY 73 53 49 SE10 30.18S ROCKY MOUNT MOSUNNY 73 52 47 S8 30.15F WASHINGTON MOSUNNY 72 54 53 SE12 30.18S WHITEVILLE SUNNY 73 56 55 SE10G18 30.15S $$ AMZ130-135-150-152-154-156-158-170-250-252-270-ANZ085-086-088-633-658-670-262300- MARINE OBSERVATIONS STATION/POSITION TIME TEMP WIND PRES WAVE SWELL AIR SEA DIR/SP/G HT/PER HT/PER (UTC) (F) (DEG/KT/KT) (MB) (FT/S) (FT/S) CHESAPEAKE LIGHT NOT AVBL 64 E VA BEACH 2150 57 52 100/ 8/ 10 1023.5 3/ 6 3/ 6 DUCK 2200 58 47 130/ 8/ 9 1022.4 2 E DUCK 2200 52 N/A 2/18 OREGON INLET 2200 63 58 80/ 5/ 7 1023.1 13E OREGON INLT 2148 55 N/A 2/ 8 2/ 8 HATTERAS CG 2200 70 60 130/ 4/ 5 1022.9 DIAMOND BUOY 2150 70 76 160/ 8/ 10 1023.3 4/10 3/10 CAPE LOOKOUT 2200 67 140/ 9/ 9 1022.6 BEAUFORT LAB 2200 68 57 150/ 5/ 7 1021.9 30 SE NEW RVR IN 2208 68 130/ 4/ 6 1022.7 30 SE NEW RVR IN 2213 67 N/A 3/ 8 2/11 27 SE WRIGHTSVLE 2208 69 63 200/ 4/ 8 1021.8 5 SE WRIGHTSVLE 2208 65 63 140/ 4/ 6 1021.9 225 S CAPE HAT 2150 68 72 70/ 16/ 17 1022.7 5/ 9 5/ 9 41 SE CHARLESTON 2150 73 74 140/ 8/ 10 1020.8 4/ 9 3/ 9 $$

USA.gov is the U.S. government's official web portal to all federal, state and local government web resources and services.